Regional Weather Roundup
Issued by NWS

Home | Current Version | Previous Version | Text Only | Print | Product List | Glossary Off
Versions: 1 2 3 4 5 6 7 8 9 10 11 12 13 14 15 16 17 18 19 20 21 22 23 24 25 26 27 28 29 30 31 32 33 34 35 36 37 38 39 40 41 42 43 44 45 46 47 48 49 50

000
ASUS43 KFSD 200102
RWRSD

WEATHER ROUNDUP FOR SOUTH DAKOTA
NATIONAL WEATHER SERVICE SIOUX FALLS SD
800 PM CDT TUE AUG 19 2014

NOTE: "FAIR" INDICATES FEW OR NO CLOUDS BELOW 12,000 FEET WITH NO
SIGNIFICANT WEATHER AND/OR OBSTRUCTIONS TO VISIBILITY.


SDZ001>005-009-010-012>017-200200-
NORTHWEST AND NORTH CENTRAL SOUTH DAKOTA

CITY           SKY/WX    TMP DP  RH WIND       PRES   REMARKS
BUFFALO          N/A     82  54  37 SE15      29.67F
FAITH            N/A     81  57  43 SE10      29.74F
MOBRIDGE       PTCLDY    79  64  60 E9        29.71S
$$

SDZ012>016-024>037-041>051-057-063-072>074-200200-
SOUTHWEST AND SOUTH CENTRAL SOUTH DAKOTA

CITY           SKY/WX    TMP DP  RH WIND       PRES   REMARKS
RAPID CTY ARPT PTCLDY    75  62  64 N6        29.73F
PIERRE         PTCLDY    84  60  44 SE10      29.71S
CUSTER         PTCLDY    76  53  44 E8        29.91S
ELLSWORTH AFB  PTCLDY    81  59  47 NW2       29.74F
PHILIP         MOCLDY    85  59  41 E17G23    29.70S
PINE RIDGE     TSTM      70  61  73 NE12      29.74R
WINNER         FAIR      81  65  58 E13       29.75F
$$

SDZ004>011-016>023-039-040-200200-
NORTHEAST SOUTH DAKOTA

CITY           SKY/WX    TMP DP  RH WIND       PRES   REMARKS
ABERDEEN       CLEAR     74  67  78 S5        29.75S
WATERTOWN      CLEAR     76  62  62 CALM      29.78S
SISSETON         N/A     76  68  76 SE3       29.74S
$$

SDZ017-020-022-023-036>040-048>070-200200-
SOUTHEAST SOUTH DAKOTA

CITY           SKY/WX    TMP DP  RH WIND       PRES   REMARKS
SIOUX FALLS    PTCLDY    77  64  64 MISG      29.79R
HURON          PTCLDY    79  63  57 E7        29.75S
CHAMBERLAIN    PTCLDY    78  65  64 E6        29.76S
MITCHELL       CLEAR     77  65  66 E6        29.76S
YANKTON        CLEAR     77  66  69 E5        29.78R
$$

ABBREVIATIONS USED IN REMARKS
   TC - TEMPERATURE IN CELSIUS
  WCI - WIND CHILL INDEX
   HX - HEAT INDEX
  VSB - VISIBILITY



USA.gov is the U.S. government's official web portal to all federal, state and local government web resources and services.